Location: Saint-Palais-sur-Mer
(45.6429°N, 1.0859°W)
Time: 00:24:39
(UTC+01:00)

Vanguard 1 - Pass Details

Date: 10 February 2026
Orbit: 653 x 3818 km, 34.2° (Epoch: 12 March)

Event Time Altitude Azimuth Distance (km) Brightness Sun altitude
Rises 18:22:44 0° 233° (SW) 5,691 15.8 -0.7°
Reaches altitude 10° 18:26:01 10° 228° (SW) 5,041 15.1 -1.2°
Maximum altitude 18:41:21 52° 158° (SSE) 3,891 13.1 -3.8°
Drops below altitude 10° 19:03:06 10° 92° (E) 6,913 13.7 -7.4°
Enters shadow 19:04:58 - 90° (E) 7,234 13.8 -7.7°
